View from above orbital plane
|
View from above satellite
|
Ground track
|
The orbit data is extracted from the following two-line orbital elements,
1 39452U 13067B 21101.15366286 .00001695 00000-0 34481-4 0 9997
2 39452 87.3663 22.2831 0002443 76.9389 283.2142 15.45439730415183
Epoch (UTC): | 11 April 2021 03:41:16 |
Eccentricity: | 0.0002443 |
inclination: | 87.3663° |
perigee height: | 428 km |
apogee height: | 432 km |
right ascension of ascending node: | 22.2831° |
argument of perigee: | 76.9389° |
revolutions per day: | 15.45439730 |
mean anomaly at epoch: | 283.2142° |
orbit number at epoch: | 41518 |
The dashed part of the orbit path shows where the satellite is in the earth's shadow,
|
|